Location: Vlissingen
(51.4500°N, 3.5830°E)
Time: 12:02:00
(UTC+02:00)

Envisat - Pass Details

Date: 01 June 2024
Orbit: 762 x 764 km, 98.3° (Epoch: 13 June)

Event Time Altitude Azimuth Distance (km) Brightness Sun altitude
Rises 04:30:47 0° 20° (NNE) 3,240 7.9 -7.8°
Reaches altitude 10° 04:33:16 10° 28° (NNE) 2,309 7.1 -7.6°
Maximum altitude 04:37:59 37° 96° (E) 1,167 4.3 -7.1°
Drops below altitude 10° 04:42:39 10° 164° (SSE) 2,293 5.2 -6.6°
Sets 04:45:06 0° 173° (S) 3,214 5.8 -6.4°
